Torna al catalogo

USA 23

AttivoNavigazioneLEO
NORAD 18009·PAYLOAD·🇺🇸 United States

Lanciato May 15, 1987 da Vandenberg Space Force Base

Loading…

Prossimi Passaggi (prossime 24 ore)

TLE

AggiornatoSource: Space-Track

Epoca: Sep 14, 2026, 14:25 UTC

1 18009U 87043E   26257.60108691  .00008323  00000-0  50517-3 0  9990
2 18009  63.2923 106.6476 0773363 107.0424 261.6779 13.88693329357906

Traccia USA 23 in tempo reale con AllMySat

Download on the App Store